Altoona, PA

8:45 PM EDT on October 22, 2019 (GMT -0400)
Altoona-Blair County

Weather History for KAOO - August, 2019

Change the Weather History Date:

Saturday, August 10, 2019

  Actual Average Record
Temperature  
Mean Temperature 66 °F 70 °F  
Max Temperature 78 °F 81 °F 95 °F (2016)
Min Temperature 54 °F 59 °F 47 °F (1948)
Degree Days  
Heating Degree Days 0 1  
Month to date heating degree days 0 2  
Since 1 June heating degree days 38 70  
Since 1 July heating degree days 0 12  
Cooling Degree Days 1 6  
Month to date cooling degree days 67 60  
Year to date cooling degree days 529 387  
Since 1 June cooling degree days 460 354  
Growing Degree Days 15 (Base 50)    
Moisture  
Dew Point 53 °F    
Average Humidity 64    
Maximum Humidity 86    
Minimum Humidity 41    
Precipitation  
Precipitation 0.00 in 0.10 in 1.14 in (2012)
Month to date precipitation 1.03 0.94  
Year to date precipitation 27.93 21.86  
Sea Level Pressure  
Sea Level Pressure 29.95 in    
Wind  
Wind Speed 7 mph (WNW)    
Max Wind Speed 16 mph    
Max Gust Speed 22 mph    
Visibility 10 miles    
Events      
T = Trace of Precipitation, MM = Missing Value Source: NWS Daily Summary

Daily Weather History Graph

Daily Weather History Graph

Search for Another Location

Airport or City:

Astronomy

Aug. 10, 2019 Rise Set
Actual Time 6:19 AM EDT 8:17 PM EDT
Civil Twilight 5:49 AM EDT 8:46 PM EDT
Nautical Twilight 5:13 AM EDT 9:22 PM EDT
Astronomical Twilight 4:34 AM EDT 10:01 PM EDT
Moon 4:58 PM EDT (8/10) 1:54 AM EDT (8/10)
Length of Visible Light 14h 57m
Length of Day
13h 58m
Waxing Gibbous, 79% of the Moon is Illuminated
Aug 10
Waxing Gibbous
Aug 15
Full
Aug 23
Last Quarter
Aug 30
New
Sep 5
First Quarter

Hourly Weather History & Observations

Time (EDT) Temp. Dew Point Humidity Pressure Visibility Wind Dir Wind Speed Gust Speed Precip Events Conditions
12:53 AM 61.0 °F 51.1 °F 70% 29.93 in 10.0 mi WNW 4.6 mph - N/A   Clear
1:53 AM 57.9 °F 51.1 °F 78% 29.93 in 10.0 mi West 3.5 mph - N/A   Clear
2:53 AM 55.9 °F 51.1 °F 84% 29.93 in 10.0 mi SSW 8.1 mph - N/A   Clear
3:53 AM 55.0 °F 51.1 °F 86% 29.93 in 10.0 mi SSW 3.5 mph - N/A   Clear
4:53 AM 55.0 °F 50.0 °F 83% 29.93 in 10.0 mi SW 3.5 mph - N/A   Clear
5:53 AM 55.9 °F 50.0 °F 80% 29.93 in 10.0 mi SSW 5.8 mph - N/A   Clear
6:53 AM 57.0 °F 51.1 °F 81% 29.94 in 10.0 mi SW 5.8 mph - N/A   Clear
7:53 AM 61.0 °F 54.0 °F 78% 29.96 in 10.0 mi WSW 4.6 mph - N/A   Clear
8:53 AM 64.9 °F 55.0 °F 70% 29.97 in 10.0 mi WSW 3.5 mph - N/A   Clear
9:53 AM 68.0 °F 55.0 °F 63% 29.97 in 10.0 mi WNW 6.9 mph - N/A   Clear
10:53 AM 70.0 °F 57.0 °F 63% 29.98 in 10.0 mi Variable 4.6 mph - N/A   Clear
11:53 AM 73.0 °F 57.9 °F 59% 29.97 in 10.0 mi WNW 8.1 mph - N/A   Clear
12:53 PM 73.9 °F 55.0 °F 52% 29.95 in 10.0 mi NW 9.2 mph - N/A   Mostly Cloudy
1:53 PM 75.9 °F 54.0 °F 46% 29.94 in 10.0 mi North 13.8 mph 20.7 mph N/A   Scattered Clouds
2:53 PM 75.0 °F 54.0 °F 48% 29.93 in 10.0 mi NNW 9.2 mph - N/A   Mostly Cloudy
3:53 PM 75.9 °F 54.0 °F 46% 29.93 in 10.0 mi NW 11.5 mph - N/A   Mostly Cloudy
4:53 PM 75.9 °F 54.0 °F 46% 29.93 in 10.0 mi NW 9.2 mph 21.9 mph N/A   Partly Cloudy
5:53 PM 75.9 °F 53.1 °F 45% 29.93 in 10.0 mi WNW 11.5 mph - N/A   Scattered Clouds
6:53 PM 75.0 °F 50.0 °F 41% 29.94 in 10.0 mi NW 10.4 mph - N/A   Clear
7:53 PM 72.0 °F 51.1 °F 48% 29.95 in 10.0 mi NW 8.1 mph - N/A   Clear
8:53 PM 70.0 °F 53.1 °F 55% 29.97 in 10.0 mi North 9.2 mph - N/A   Clear
9:53 PM 66.0 °F 53.1 °F 63% 30.00 in 10.0 mi NNE 4.6 mph - N/A   Clear
10:53 PM 62.1 °F 53.1 °F 72% 30.01 in 10.0 mi NNE 3.5 mph - N/A   Clear
11:53 PM 59.0 °F 52.0 °F 78% 30.03 in 10.0 mi Calm Calm - N/A   Clear